Content
SEND FEEDBACK

Daily
Averages
Monthly
Summary
Switzerland

GENEVA, SWITZERLAND


Home > Europe > Switzerland
Elevation: 1364 feet     Latitude: 46 15N     Longitude: 006 08E

WEATHER
 
SELECT A DAY
Number of Records: 305,936;   Date Range: 7/1/96 - 8/28/14
 
SHARE

PRINT THIS DATA

[ ← Previous Day ]
WEATHER ALMANAC - MAY 14, 2013
[ Next Day → ]
[ °C ]   °F
Weather ElementAverageHighLow
Temperature61 °F73.4 °F (3:20 pm)44 °F (6:00 am)
Dewpoint44.9 °F50 °F (10:20 am)41 °F (4:00 pm)
Humidity57.5 %100 % (6:50 am)21 % (4:00 pm)
Barometer29.86 in30.06 in (2:00 am)29.64 in (8:00 pm)
Wind Speed7.1 mph17.3 mph (6:00 pm)
Weather ElementAverage
Visibility9.3 mi
Wind DirectionSSE (157 °)

Weather ElementTotal
Precipitation---
Heating Degree Days6.3 (Base 65)
Growing Degree Days8.7 (Base 50)
Averaged from 64 records on May 14, 2013
WEATHER CONDITIONS BREAKOUT
WIND DIRECTION BREAKOUT
WEATHER BY HOUR - MAY 14, 2013
[ °C ]   °F
Local TimeTemperatureDewpointHumidityBarometerVisibilityWind DirectionWind SpeedGust SpeedPrecipitationEventsConditions
12:20 AM50.0 °F44.6 °F82 %30.04 in6.2 miCalmScattered Clouds
12:50 AM48.2 °F44.6 °F87 %30.04 in6.2 miVariable1.2 mphPartly Cloudy
1:20 AM46.4 °F44.6 °F93 %30.04 inCalmClear
2:00 AM47.0 °F43.0 °F82 %30.06 in31.0 miNW (320°)3.5 mph
2:20 AM46.4 °F44.6 °F93 %30.04 inCalmClear
2:50 AM46.4 °F44.6 °F93 %30.04 inCalmClear
3:00 AM47.0 °F43.0 °F81 %30.04 inWSW (240°)1.2 mph
3:50 AM44.6 °F42.8 °F93 %30.01 inVariable3.5 mphClear
4:00 AM46.0 °F43.0 °F84 %30.04 inWest (280°)1.2 mph
4:20 AM44.6 °F42.8 °F93 %30.01 inSSE (160°)2.3 mphClear
4:50 AM44.6 °F42.8 °F93 %30.01 inWest (260°)2.3 mphClear
5:20 AM44.6 °F42.8 °F93 %29.98 inWNW (290°)2.3 mphClear
5:50 AM44.6 °F42.8 °F93 %29.98 in6.2 miCalmPartly Cloudy
6:00 AM44.0 °F42.0 °F89 %30.02 inNorth1.2 mph
6:20 AM44.6 °F42.8 °F93 %29.98 in6.2 miVariable1.2 mphPartly Cloudy
6:50 AM44.6 °F44.6 °F100 %29.98 in6.2 miVariable2.3 mphPartly Cloudy
7:00 AM46.0 °F42.0 °F83 %30.01 inNW (310°)2.3 mph
7:20 AM48.2 °F44.6 °F87 %29.98 in6.2 miCalmPartly Cloudy
7:50 AM53.6 °F46.4 °F77 %29.98 in6.2 miVariable1.2 mphPartly Cloudy
8:00 AM52.0 °F45.0 °F71 %29.99 in37.0 miNorth1.2 mphScattered Clouds
8:20 AM53.6 °F46.4 °F77 %29.98 in6.2 miVariable2.3 mphPartly Cloudy
8:50 AM55.4 °F46.4 °F72 %29.98 in6.2 miVariable3.5 mphPartly Cloudy
9:00 AM55.0 °F47.0 °F65 %29.97 inNNE (20°)3.5 mph
9:20 AM59.0 °F46.4 °F63 %29.98 in6.2 miVariable1.2 mphPartly Cloudy
9:50 AM59.0 °F46.4 °F63 %29.95 in6.2 miVariable2.3 mphPartly Cloudy
10:00 AM58.0 °F45.0 °F52 %29.95 inESE (110°)2.3 mph
10:20 AM60.8 °F50.0 °F68 %29.95 in6.2 miVariable2.3 mphPartly Cloudy
10:50 AM60.8 °F48.2 °F63 %29.95 in6.2 miSW (220°)5.8 mphPartly Cloudy
11:20 AM64.4 °F46.4 °F52 %29.92 in6.2 miWSW (240°)4.6 mphPartly Cloudy
11:50 AM64.4 °F48.2 °F56 %29.92 in6.2 miSW (230°)6.9 mphPartly Cloudy
12:00 PM65.0 °F45.0 °F37 %29.87 inSSW (210°)9.2 mph
12:20 PM66.2 °F46.4 °F49 %29.89 in6.2 miSW (230°)10.4 mphPartly Cloudy
12:50 PM68.0 °F46.4 °F46 %29.89 in6.2 miSSW (210°)10.4 mphPartly Cloudy
1:00 PM68.0 °F47.0 °F36 %29.84 inSSW (210°)10.4 mph
1:20 PM69.8 °F48.2 °F46 %29.86 in6.2 miSW (230°)9.2 mphPartly Cloudy
1:50 PM69.8 °F48.2 °F46 %29.86 in6.2 miSouth (190°)10.4 mphPartly Cloudy
2:00 PM70.0 °F46.0 °F30 %29.80 in44.0 miSSW (210°)11.5 mphScattered Clouds
2:20 PM71.6 °F44.6 °F38 %29.83 in6.2 miSSW (210°)11.5 mphPartly Cloudy
2:50 PM71.6 °F46.4 °F41 %29.80 in6.2 miSSW (200°)10.4 mphPartly Cloudy
3:00 PM72.0 °F46.0 °F29 %29.76 inSSW (200°)10.4 mph
3:20 PM73.4 °F44.6 °F36 %29.80 in6.2 miSW (220°)10.4 mphPartly Cloudy
3:50 PM73.4 °F42.8 °F33 %29.77 in6.2 miSW (230°)16.1 mphPartly Cloudy
4:00 PM73.0 °F41.0 °F21 %29.72 inSW (230°)15.0 mph
4:20 PM73.4 °F42.8 °F33 %29.77 in6.2 miWSW (240°)15.0 mphPartly Cloudy
4:50 PM73.4 °F42.8 °F33 %29.74 in6.2 miSW (230°)15.0 mphPartly Cloudy
5:20 PM73.4 °F44.6 °F36 %29.74 in6.2 miSW (230°)12.7 mphPartly Cloudy
5:50 PM73.4 °F42.8 °F33 %29.74 in6.2 miSSW (200°)15.0 mphPartly Cloudy
6:00 PM73.0 °F43.0 °F23 %29.68 inSSW (210°)17.3 mph
6:20 PM73.4 °F42.8 °F33 %29.71 in6.2 miSSW (210°)16.1 mphPartly Cloudy
6:50 PM73.4 °F44.6 °F36 %29.71 in6.2 miSW (220°)13.8 mphPartly Cloudy
7:00 PM72.0 °F42.0 °F23 %29.65 inSW (230°)12.7 mph
7:20 PM71.6 °F42.8 °F35 %29.68 in6.2 miWSW (240°)10.4 mphPartly Cloudy
7:50 PM71.6 °F44.6 °F38 %29.68 in6.2 miSW (230°)9.2 mphPartly Cloudy
8:00 PM71.0 °F44.0 °F26 %29.64 in47.0 miSW (230°)8.1 mphScattered Clouds
8:20 PM71.6 °F44.6 °F38 %29.68 in6.2 miSouth (190°)6.9 mphPartly Cloudy
8:50 PM68.0 °F46.4 °F46 %29.68 in6.2 miSSW (200°)8.1 mphPartly Cloudy
9:00 PM68.0 °F45.0 °F33 %29.64 inSSW (210°)11.5 mph
9:20 PM68.0 °F46.4 °F46 %29.68 in6.2 miSW (220°)6.9 mphPartly Cloudy
9:50 PM66.2 °F46.4 °F49 %29.68 in6.2 miSSW (210°)10.4 mphPartly Cloudy
10:00 PM66.0 °F46.0 °F38 %29.65 inSSW (210°)11.5 mph
10:20 PM66.2 °F46.4 °F49 %29.68 in6.2 miSSW (210°)11.5 mphScattered Clouds
10:50 PM66.2 °F48.2 °F52 %29.68 in6.2 miSSW (210°)12.7 mphMostly Cloudy
11:20 PM64.4 °F46.4 °F52 %29.68 in6.2 miSW (230°)11.5 mphMostly Cloudy
11:50 PM64.4 °F46.4 °F52 %29.68 in6.2 miSW (230°)11.5 mphMostly Cloudy
Hourly data recorded from LSGG, located miles away from Geneva, Switzerland







STORIES FROM OUR PARTNERS